Leakey, Texas, United States (78873)
Lat: 29.73N, Lon: 99.76W
Wx Zone: TXZ185
Local Info
Past Weather Observations for Wednesday, July 1, 2015

NOTE: This archive is for the closest National Weather Service station to Leakey. Information may differ from the station used for current weather conditions.

Click here for Long-term Archive

Time Weather Temperature Dewpoint Humidity Pressure Winds Precip Visibility
23:55
Partly Cloudy
70°F / 21°C 68°F / 20°C 94% 30.09 in
(1019 mb)
SSE 11.5 mph
(SSE 19 kph)
- 10SM
23:35
Mostly Cloudy
72°F / 22°C 68°F / 20°C 88% 30.09 in
(1019 mb)
SSE 15 mph
(SSE 24 kph)
- 9SM
23:15
Mostly Cloudy
72°F / 22°C 68°F / 20°C 88% 30.09 in
(1019 mb)
SSE 10.4 mph
(SSE 17 kph)
- 9SM
22:55
Clear
72°F / 22°C 66°F / 19°C 83% 30.09 in
(1019 mb)
SSE 10.4 mph
(SSE 17 kph)
- 10SM
22:35
Partly Cloudy
72°F / 22°C 66°F / 19°C 83% 30.09 in
(1019 mb)
SSE 12.7 mph
(SSE 20 kph)
- 10SM
22:15
Mostly Cloudy
72°F / 22°C 68°F / 20°C 88% 30.09 in
(1019 mb)
SSE 15 mph
(SSE 24 kph)
- 9SM
21:55
Mostly Cloudy
72°F / 22°C 68°F / 20°C 88% 30.09 in
(1019 mb)
SSE 13.8 mph
(SSE 22 kph)
- 9SM
21:35
Mostly Cloudy
72°F / 22°C 68°F / 20°C 88% 30.09 in
(1019 mb)
SSE 16.1 mph
(SSE 26 kph)
- 10SM
21:15
Mostly Cloudy
73°F / 23°C 68°F / 20°C 83% 30.09 in
(1019 mb)
SSE 15 mph
(SSE 24 kph)
- 10SM
20:55
Mostly Cloudy
73°F / 23°C 68°F / 20°C 83% 30.09 in
(1019 mb)
SSE 12.7 mph
(SSE 20 kph)
- 9SM
20:35
Mostly Cloudy
73°F / 23°C 68°F / 20°C 83% 30.09 in
(1019 mb)
SSE 10.4 mph
(SSE 17 kph)
- 9SM
20:15
Overcast
73°F / 23°C 68°F / 20°C 83% 30.06 in
(1018 mb)
SSE 11.5 mph
(SSE 19 kph)
- 10SM
19:55
Overcast
73°F / 23°C 68°F / 20°C 83% 30.06 in
(1018 mb)
SSE 11.5 mph
(SSE 19 kph)
- 8SM
19:35
Mostly Cloudy
75°F / 24°C 68°F / 20°C 78% 30.06 in
(1018 mb)
SSE 13.8 mph
(SSE 22 kph)
- 9SM
19:15
Partly Cloudy
75°F / 24°C 68°F / 20°C 78% 30.06 in
(1018 mb)
SSE 10.4 mph
(SSE 17 kph)
- 8SM
18:55
Mostly Cloudy
79°F / 26°C 66°F / 19°C 65% 30.06 in
(1018 mb)
SSE 15 mph
(SSE 24 kph)
- 8SM
18:35
Mostly Cloudy
79°F / 26°C 68°F / 20°C 70% 30.04 in
(1017 mb)
SE 11.5 mph
(SE 19 kph)
- 8SM
18:15
Mostly Cloudy
79°F / 26°C 68°F / 20°C 70% 30.04 in
(1017 mb)
SE 11.5 mph
(SE 19 kph)
- 7SM
17:55
Mostly Cloudy
81°F / 27°C 68°F / 20°C 66% 30.06 in
(1018 mb)
SSE 13.8 mph
(SSE 22 kph)
- 8SM
17:35
Partly Cloudy
81°F / 27°C 68°F / 20°C 66% 30.06 in
(1018 mb)
SSE 16.1 mph
(SSE 26 kph)
- 8SM
17:15
Partly Cloudy
81°F / 27°C 70°F / 21°C 70% 30.06 in
(1018 mb)
SSE 13.8 mph
(SSE 22 kph)
- 8SM
16:55
Clear
81°F / 27°C 70°F / 21°C 70% 30.06 in
(1018 mb)
SE 9.2 mph
(SE 15 kph)
- 8SM
16:35
Clear
81°F / 27°C 70°F / 21°C 70% 30.06 in
(1018 mb)
SE 13.8 mph
(SE 22 kph)
- 8SM
16:15
Clear
81°F / 27°C 70°F / 21°C 70% 30.06 in
(1018 mb)
SSE 13.8 mph
(SSE 22 kph)
- 8SM
15:55
Partly Cloudy
81°F / 27°C 70°F / 21°C 70% 30.06 in
(1018 mb)
SSE 16.1 mph
(SSE 26 kph)
- 8SM
15:35
Partly Cloudy
81°F / 27°C 72°F / 22°C 74% 30.09 in
(1019 mb)
SSE 17.3 mph
(SSE 28 kph)
- 7SM
15:15
Partly Cloudy
84°F / 29°C 66°F / 19°C 55% 30.06 in
(1018 mb)
S 23 mph
(S 37 kph)
- 9SM
14:55
Clear
84°F / 29°C 70°F / 21°C 62% 30.06 in
(1018 mb)
SSE 11.5 mph
(SSE 19 kph)
- 7SM
14:35
Partly Cloudy
82°F / 28°C 70°F / 21°C 66% 30.09 in
(1019 mb)
SSE 12.7 mph
(SSE 20 kph)
- 7SM
14:15
Partly Cloudy
82°F / 28°C 70°F / 21°C 66% 30.09 in
(1019 mb)
SSE 10.4 mph
(SSE 17 kph)
- 8SM
13:55
Mostly Cloudy
81°F / 27°C 68°F / 20°C 66% 30.09 in
(1019 mb)
SSE 11.5 mph
(SSE 19 kph)
- 7SM
13:35
Mostly Cloudy
82°F / 28°C 70°F / 21°C 66% 30.09 in
(1019 mb)
SSE 12.7 mph
(SSE 20 kph)
- 7SM
13:15
Mostly Cloudy
82°F / 28°C 68°F / 20°C 62% 30.12 in
(1020 mb)
SSE 12.7 mph
(SSE 20 kph)
- 7SM
12:55
Partly Cloudy
82°F / 28°C 68°F / 20°C 62% 30.12 in
(1020 mb)
S 13.8 mph
(S 22 kph)
- 7SM
12:35
Mostly Cloudy
81°F / 27°C 68°F / 20°C 66% 30.12 in
(1020 mb)
SSE 12.7 mph
(SSE 20 kph)
- 8SM
12:15
Partly Cloudy
82°F / 28°C 68°F / 20°C 62% 30.12 in
(1020 mb)
S 15 mph
(S 24 kph)
- 8SM
11:55
Partly Cloudy
82°F / 28°C 70°F / 21°C 66% 30.12 in
(1020 mb)
S 12.7 mph
(S 20 kph)
- 8SM
11:35
Partly Cloudy
81°F / 27°C 68°F / 20°C 66% 30.12 in
(1020 mb)
S 13.8 mph
(S 22 kph)
- 8SM
11:15
Partly Cloudy
81°F / 27°C 70°F / 21°C 70% 30.12 in
(1020 mb)
S 12.7 mph
(S 20 kph)
- 7SM
10:55
Partly Cloudy
81°F / 27°C 68°F / 20°C 66% 30.12 in
(1020 mb)
SSE 15 mph
(SSE 24 kph)
- 7SM
10:35
Partly Cloudy
79°F / 26°C 68°F / 20°C 70% 30.12 in
(1020 mb)
SSE 13.8 mph
(SSE 22 kph)
- 8SM
10:15
Partly Cloudy
79°F / 26°C 70°F / 21°C 74% 30.15 in
(1021 mb)
SSE 11.5 mph
(SSE 19 kph)
- 7SM
09:55
Partly Cloudy
79°F / 26°C 68°F / 20°C 70% 30.15 in
(1021 mb)
S 13.8 mph
(S 22 kph)
- 8SM
09:35
Mostly Cloudy
75°F / 24°C 68°F / 20°C 78% 30.15 in
(1021 mb)
S 15 mph
(S 24 kph)
- 7SM
09:15
Overcast
73°F / 23°C 68°F / 20°C 83% 30.15 in
(1021 mb)
SSE 10.4 mph
(SSE 17 kph)
- 7SM
08:55
Mostly Cloudy
73°F / 23°C 68°F / 20°C 83% 30.15 in
(1021 mb)
S 12.7 mph
(S 20 kph)
- 7SM
08:35
Mostly Cloudy
73°F / 23°C 68°F / 20°C 83% 30.12 in
(1020 mb)
SSE 10.4 mph
(SSE 17 kph)
- 8SM
08:15
Mostly Cloudy
73°F / 23°C 68°F / 20°C 83% 30.12 in
(1020 mb)
SSE 10.4 mph
(SSE 17 kph)
- 7SM
07:55
Mostly Cloudy
72°F / 22°C 68°F / 20°C 88% 30.12 in
(1020 mb)
S 9.2 mph
(S 15 kph)
- 7SM
07:35
Mostly Cloudy
Fog And Mist
72°F / 22°C 68°F / 20°C 88% 30.15 in
(1021 mb)
SSE 10.4 mph
(SSE 17 kph)
- 5SM
07:15
Mostly Cloudy
72°F / 22°C 68°F / 20°C 88% 30.15 in
(1021 mb)
S 6.9 mph
(S 11 kph)
- 7SM
06:55
Overcast
Fog And Mist
70°F / 21°C 68°F / 20°C 94% 30.12 in
(1020 mb)
S 5.8 mph
(S 9 kph)
- 5SM
06:35
Overcast
Fog And Mist
70°F / 21°C 68°F / 20°C 94% 30.12 in
(1020 mb)
SSE 10.4 mph
(SSE 17 kph)
- 5SM
06:15
Overcast
Fog And Mist
70°F / 21°C 68°F / 20°C 94% 30.12 in
(1020 mb)
SSE 9.2 mph
(SSE 15 kph)
- 5SM
05:55
Overcast
Fog And Mist
70°F / 21°C 68°F / 20°C 94% 30.12 in
(1020 mb)
S 8.1 mph
(S 13 kph)
- 5SM
05:35
Overcast
Fog And Mist
70°F / 21°C 68°F / 20°C 94% 30.12 in
(1020 mb)
S 9.2 mph
(S 15 kph)
- 6SM
05:15
Overcast
Fog And Mist
70°F / 21°C 68°F / 20°C 94% 30.09 in
(1019 mb)
S 8.1 mph
(S 13 kph)
- 6SM
04:55
Overcast
70°F / 21°C 70°F / 21°C 100% 30.09 in
(1019 mb)
S 10.4 mph
(S 17 kph)
- 7SM
04:35
Overcast
70°F / 21°C 70°F / 21°C 100% 30.09 in
(1019 mb)
S 8.1 mph
(S 13 kph)
- 7SM
04:15
Overcast
Fog And Mist
70°F / 21°C 70°F / 21°C 100% 30.09 in
(1019 mb)
S 13.8 mph
(S 22 kph)
- 5SM
03:55
Overcast
Fog And Mist
70°F / 21°C 70°F / 21°C 100% 30.09 in
(1019 mb)
SSE 12.7 mph
(SSE 20 kph)
- 5SM
03:35
Overcast
Fog And Mist
70°F / 21°C 70°F / 21°C 100% 30.09 in
(1019 mb)
S 11.5 mph
(S 19 kph)
- 4SM
03:15
Overcast
Fog And Mist
70°F / 21°C 70°F / 21°C 100% 30.09 in
(1019 mb)
S 12.7 mph
(S 20 kph)
- 5SM
02:55
Overcast
Fog And Mist
70°F / 21°C 70°F / 21°C 100% 30.09 in
(1019 mb)
SSE 15 mph
(SSE 24 kph)
- 3SM
02:35
Overcast
Fog And Mist
70°F / 21°C 70°F / 21°C 100% 30.12 in
(1020 mb)
SSE 11.5 mph
(SSE 19 kph)
- 5SM
02:15
Overcast
70°F / 21°C 68°F / 20°C 94% 30.12 in
(1020 mb)
SSE 10.4 mph
(SSE 17 kph)
- 7SM
01:55
Overcast
70°F / 21°C 68°F / 20°C 94% 30.12 in
(1020 mb)
SSE 11.5 mph
(SSE 19 kph)
- 8SM
01:35
Overcast
70°F / 21°C 68°F / 20°C 94% 30.12 in
(1020 mb)
SSE 8.1 mph
(SSE 13 kph)
- 9SM
01:15
Mostly Cloudy
68°F / 20°C 66°F / 19°C 94% 30.12 in
(1020 mb)
SSE 9.2 mph
(SSE 15 kph)
- 9SM
00:55
Mostly Cloudy
70°F / 21°C 66°F / 19°C 88% 30.12 in
(1020 mb)
SE 8.1 mph
(SE 13 kph)
- 9SM
00:35
Partly Cloudy
70°F / 21°C 66°F / 19°C 88% 30.12 in
(1020 mb)
SSE 13.8 mph
(SSE 22 kph)
- 9SM
00:15
Partly Cloudy
70°F / 21°C 68°F / 20°C 94% 30.12 in
(1020 mb)
SSE 11.5 mph
(SSE 19 kph)
- 8SM
Time Weather Temperature Dewpoint Humidity Pressure Winds Precip Visibility


Weather for websites

WeatherForYou.com, LLC is not responsible for any damages or problems caused by this service. Current weather conditions are obtained from the closest station including government and personal stations which may have varying degrees of accuracy. Weather forecasts are derived from the NOAA NDFD. Like all things, this site belongs to Jesus Christ... He just trusts us to maintain it. If you have any questions or comments email webmaster@weatherforyou.com

Copyright © 2015, WeatherForYou.com LLC. All rights reserved.